St. Augustine, FL

9:32 PM EDT on September 19, 2017 (GMT -0400)
Saint Augustine

Weather History for KSGJ - February, 2013

Change the Weather History Date:

Friday, February 8, 2013

  Actual Average Record
Temperature  
Mean Temperature 63 °F -  
Max Temperature 71 °F 63 °F 81 °F (2017)
Min Temperature 55 °F 46 °F 31 °F (1978)
Degree Days  
Heating Degree Days 2    
Growing Degree Days 13 (Base 50)    
Moisture  
Dew Point 56 °F    
Average Humidity 77    
Maximum Humidity 90    
Minimum Humidity 53    
Precipitation  
Precipitation 0.00 in - - ()
Sea Level Pressure  
Sea Level Pressure 29.97 in    
Wind  
Wind Speed 11 mph (WNW)    
Max Wind Speed 15 mph    
Max Gust Speed 21 mph    
Visibility 10 miles    
Events      
Averages and records for this station are not official NWS values.
T = Trace of Precipitation, MM = Missing Value Source: NWS Daily Summary

Daily Weather History Graph

Daily Weather History Graph

Search for Another Location

Airport or City:

Trip Planner

Search our weather history database for the weather conditions in past years. The results will help you decide how hot, cold, wet, or windy it might be!

Date:

Astronomy

Feb. 08, 2013 Rise Set
Actual Time 7:10 AM EST 6:08 PM EST
Civil Twilight 6:45 AM EST 6:33 PM EST
Nautical Twilight 6:17 AM EST 7:01 PM EST
Astronomical Twilight 5:49 AM EST 7:29 PM EST
Moon 5:34 AM EST (2/8) 4:42 PM EST (2/8)
Length of Visible Light 11h 47m
Length of Day
10h 58m
Waning Crescent, 3% of the Moon is Illuminated
Feb 8
Waning Crescent
Feb 10
New
Feb 17
First Quarter
Feb 25
Full
Mar 4
Last Quarter

Hourly Weather History & Observations

Time (EST) Temp. Dew Point Humidity Pressure Visibility Wind Dir Wind Speed Gust Speed Precip Events Conditions
12:03 AM 68.0 °F 64.4 °F 88% 29.85 in 10.0 mi WSW 15.0 mph 19.6 mph N/A   Mostly Cloudy
12:54 AM 68.0 °F 64.4 °F 88% 29.86 in 10.0 mi WSW 11.5 mph 20.7 mph N/A   Scattered Clouds
12:58 AM 68.0 °F 64.0 °F 87% 29.86 in 10.0 mi West 13.8 mph 19.6 mph N/A   Scattered Clouds
1:56 AM 66.2 °F 62.6 °F 88% 29.86 in 10.0 mi West 15.0 mph 19.6 mph N/A   Mostly Cloudy
1:58 AM 66.9 °F 63.0 °F 87% 29.86 in 10.0 mi West 13.8 mph 19.6 mph N/A   Mostly Cloudy
2:58 AM 66.9 °F 61.0 °F 81% 29.86 in 10.0 mi West 8.1 mph 18.4 mph N/A   Mostly Cloudy
3:04 AM 66.2 °F 60.8 °F 83% 29.86 in 10.0 mi West 9.2 mph - N/A   Scattered Clouds
3:58 AM 64.9 °F 61.0 °F 87% 29.88 in 10.0 mi West 9.2 mph - N/A   Partly Cloudy
4:44 AM 64.4 °F 60.8 °F 88% 29.89 in 10.0 mi NW 11.5 mph - N/A   Mostly Cloudy
4:58 AM 63.0 °F 59.0 °F 87% 29.89 in 10.0 mi WNW 11.5 mph 17.3 mph N/A   Mostly Cloudy
5:07 AM 62.6 °F 59.0 °F 88% 29.90 in 10.0 mi WNW 6.9 mph - N/A   Scattered Clouds
5:16 AM 62.6 °F 59.0 °F 88% 29.91 in 10.0 mi NW 6.9 mph - N/A   Mostly Cloudy
5:29 AM 60.8 °F 57.2 °F 88% 29.91 in 10.0 mi WNW 8.1 mph - N/A   Scattered Clouds
5:58 AM 60.1 °F 55.9 °F 86% 29.93 in 10.0 mi WNW 11.5 mph - N/A   Clear
6:40 AM 59.0 °F 55.4 °F 88% 29.95 in 10.0 mi WNW 3.5 mph - N/A   Mostly Cloudy
6:58 AM 57.9 °F 55.0 °F 90% 29.96 in 10.0 mi West 5.8 mph - N/A   Overcast
7:58 AM 57.0 °F 54.0 °F 89% 29.99 in 10.0 mi NW 11.5 mph - N/A   Overcast
8:58 AM 59.0 °F 53.1 °F 81% 30.01 in 10.0 mi NW 12.7 mph - N/A   Mostly Cloudy
9:02 AM 59.0 °F 53.6 °F 82% 30.00 in 10.0 mi WNW 12.7 mph - N/A   Partly Cloudy
9:46 AM 60.8 °F 53.6 °F 77% 30.02 in 10.0 mi WNW 10.4 mph - N/A   Mostly Cloudy
9:58 AM 62.1 °F 53.1 °F 72% 30.02 in 10.0 mi WNW 9.2 mph 17.3 mph N/A   Mostly Cloudy
10:02 AM 62.6 °F 53.6 °F 72% 30.02 in 10.0 mi West 6.9 mph - N/A   Partly Cloudy
10:26 AM 62.6 °F 53.6 °F 72% 30.03 in 10.0 mi West 10.4 mph 17.3 mph N/A   Mostly Cloudy
10:35 AM 62.6 °F 53.6 °F 72% 30.03 in 10.0 mi WNW 10.4 mph 18.4 mph N/A   Scattered Clouds
10:58 AM 64.0 °F 53.1 °F 67% 30.04 in 10.0 mi WNW 6.9 mph 17.3 mph N/A   Partly Cloudy
11:58 AM 66.0 °F 53.1 °F 63% 30.03 in 10.0 mi WNW 13.8 mph - N/A   Partly Cloudy
12:20 PM 66.2 °F 53.6 °F 64% 30.02 in 10.0 mi WNW 10.4 mph 17.3 mph N/A   Scattered Clouds
12:30 PM 66.2 °F 53.6 °F 64% 30.02 in 10.0 mi West 8.1 mph - N/A   Mostly Cloudy
12:35 PM 66.2 °F 53.6 °F 64% 30.02 in 10.0 mi West 13.8 mph 19.6 mph N/A   Scattered Clouds
12:58 PM 66.9 °F 53.1 °F 61% 30.01 in 10.0 mi NW 11.5 mph - N/A   Partly Cloudy
1:58 PM 70.0 °F 54.0 °F 57% 29.99 in 10.0 mi West 8.1 mph - N/A   Clear
2:58 PM 71.1 °F 54.0 °F 55% 29.99 in 10.0 mi West 6.9 mph - N/A   Clear
3:58 PM 71.1 °F 53.1 °F 53% 29.98 in 10.0 mi West 9.2 mph - N/A   Clear
4:58 PM 70.0 °F 54.0 °F 57% 29.99 in 10.0 mi West 9.2 mph - N/A   Clear
5:58 PM 68.0 °F 54.0 °F 61% 30.00 in 10.0 mi NW 4.6 mph - N/A   Partly Cloudy
6:58 PM 64.0 °F 55.0 °F 73% 30.04 in 10.0 mi NNW 9.2 mph - N/A   Partly Cloudy
7:58 PM 61.0 °F 53.1 °F 75% 30.06 in 10.0 mi NW 9.2 mph - N/A   Clear
8:58 PM 59.0 °F 53.1 °F 81% 30.08 in 10.0 mi North - - N/A   Partly Cloudy
9:58 PM 57.9 °F 52.0 °F 81% 30.09 in 10.0 mi WSW 4.6 mph - N/A   Clear
10:58 PM 55.9 °F 52.0 °F 87% 30.11 in 10.0 mi WNW 5.8 mph - N/A   Partly Cloudy
11:58 PM 55.0 °F 52.0 °F 89% 30.12 in 10.0 mi Calm Calm - N/A   Clear